Location: *
(28.9198°N, 81.3186°W)
Time: 15:58:02
(UTC+00:00)

Daily predictions for brighter satellites

Satellite Brightness Start Highest point End
(mag) Time Altitude Azimuth Time Altitude Azimuth Time Altitude Azimuth
Okean-O 3.5 22:48:21 10° SE 22:52:08 28° ENE 22:55:55 10° NNE
Cosmos 1666 3.1 22:49:13 10° NNE 22:52:43 38° E 22:56:12 10° SSE
Okean 1-7 3.1 22:51:06 10° S 22:55:19 56° E 22:59:35 10° NNE
COBE Rocket 4.1 22:51:00 10° N 22:55:40 73° WNW 23:00:25 10° SSW
Atlas Centaur 2 4.0 22:51:42 10° W 22:58:25 46° SSW 23:06:14 10° SE
Cosmos 1908 Rocket 3.7 22:54:17 10° N 22:58:32 51° E 23:02:44 10° SSE
Meteor 1-11 Rocket 4.3 22:54:58 10° NNW 23:00:53 68° W 23:06:41 10° S
Cosmos 1092 Rocket 4.1 22:54:47 10° S 23:01:07 88° W 23:07:25 10° N
YAOGAN 1 4.3 23:00:00 10° E 23:01:44 12° ENE 23:03:29 10° NE
Delta 2 Rocket 4.2 22:58:00 10° W 23:03:11 54° NNW 23:07:40 11° ENE
GPS 2-05 Rocket1 2.4 23:01:25 10° WSW 23:04:08 62° SSE 23:06:35 12° ENE
STARLINK-48 3.4 23:00:21 10° SW 23:04:12 73° SE 23:08:04 10° NE
Cosmos 1140 Rocket 3.5 23:00:00 10° S 23:04:59 59° ESE 23:10:02 10° NNE
Envisat 3.4 23:00:26 10° SE 23:05:08 40° ENE 23:09:51 10° N
COSMO-SKYMED 1 2.9 23:01:12 10° NNE 23:05:21 44° E 23:09:28 10° S
YAOGAN 6 3.7 23:05:57 10° SE 23:08:42 22° ENE 23:11:29 10° NNE
NOAA 12 4.2 23:04:26 10° SSE 23:09:36 55° ENE 23:14:45 10° N
Cosmos 1536 3.3 23:06:46 10° NNW 23:10:43 64° W 23:14:37 10° S
OAO 2 Rocket 3.8 23:08:08 10° WNW 23:12:54 45° N 23:17:05 14° ENE
Cosmos 407 Rocket 3.8 23:09:14 10° SSW 23:14:21 70° WNW 23:19:35 10° N
Cosmos 1023 Rocket 4.4 23:09:36 10° S 23:14:40 79° ESE 23:19:46 10° NNE
OAO 3 Rocket 3.8 23:14:32 10° WNW 23:18:58 41° N 23:22:22 16° ENE
STARLINK-61 4.3 23:16:00 10° SSW 23:19:40 36° SE 23:22:14 17° ENE
Meteor 1-18 Rocket 4.2 23:14:36 10° S 23:20:20 71° E 23:25:58 10° NNE
Okean 1 3.2 23:17:42 10° S 23:21:42 83° E 23:25:40 10° N
SMAP 3.8 23:18:21 10° S 23:22:54 58° W 23:27:29 10° NNW
Cosmos 1743 3.1 23:21:32 10° NNE 23:25:11 39° E 23:28:50 10° SSE
Cosmos 1943 4.0 23:21:46 10° SSE 23:26:34 29° ESE 23:29:53 17° NE
Abrixas rocket 4.1 23:29:02 10° W 23:31:22 20° NW 23:33:20 12° N
CZ-4 R/B 1.9 23:28:08 10° SE 23:31:41 34° ENE 23:35:12 10° N
Cosmos 921 Rocket 3.1 23:28:00 10° N 23:32:15 54° ENE 23:36:33 10° SSE
USA 267 3.5 23:28:51 10° ESE 23:35:04 48° NE 23:41:17 10° NNW
Okean 3 3.7 23:31:07 10° SSE 23:35:07 46° E 23:38:33 13° NNE
Cosmos 2278 Rocket 4.0 23:31:26 10° NW 23:36:30 35° WSW 23:41:34 10° SSW
Delta 128 4.5 23:31:49 10° SW 23:36:35 41° SSE 23:39:19 20° ESE
CZ-4C R/B 2.0 23:36:13 10° S 23:40:45 53° ESE 23:43:47 23° NE
STARLINK-42 4.3 23:38:09 10° SSW 23:41:48 34° SE 23:42:52 29° E
Cosmos 2266 Rocket 4.4 23:36:07 10° SSE 23:41:59 39° E 23:47:51 10° NNE
FengYun 1-2 T 4.1 23:36:39 10° SSE 23:42:04 68° ENE 23:47:31 10° N
STARLINK-21 4.4 23:39:43 10° SSW 23:43:21 33° SE 23:44:18 29° E
SL-16 R/B 3.9 23:38:57 10° SW 23:43:54 30° WNW 23:48:53 10° N
ISS -2.2 23:41:00 10° WNW 23:44:08 37° SW 23:47:15 10° SSE
S3M 4.3 23:38:52 10° NNE 23:44:35 39° E 23:50:13 10° SSE
STARLINK-45 4.1 23:41:25 10° SSW 23:45:12 40° SE 23:46:15 33° E
Shenzhou-11 Module 3.8 23:44:40 10° NNW 23:45:49 17° N 23:45:49 17° N
STARLINK-75 3.9 23:43:07 10° SSW 23:46:57 45° SE 23:48:01 36° E
ATLAS 5 CENTAUR R/B 3.9 23:45:21 10° SSW 23:47:47 15° S 23:51:56 10° SE
Cosmos 2369 Rocket 4.1 23:44:15 10° NNE 23:44:46 12° NNE 23:44:46 12° NNE
STARLINK-76 4.1 23:44:37 10° SSW 23:48:21 38° SE 23:49:09 34° E
STARLINK 4.1 23:46:10 10° SSW 23:49:57 40° SE 23:50:41 36° E
Cosmos 1603 3.6 23:45:08 10° S 23:50:47 74° ESE 23:55:11 18° NNE
STARLINK-32 4.0 23:47:48 10° SSW 23:51:36 42° SE 23:52:17 38° E
STARLINK-40 3.9 23:49:26 10° SSW 23:53:14 44° SE 23:53:53 40° E
Cosmos 1782 Rocket 4.1 23:49:11 10° NNW 23:53:27 60° W 23:57:42 10° S
STARLINK-44 3.9 23:51:02 10° SSW 23:54:52 46° SE 23:55:26 42° E
Cosmos 1867 4.1 23:49:58 10° N 23:54:52 33° ENE 23:55:14 33° ENE
